Time,TemperatureF,DewpointF,PressureIn,WindDirection,WindDirectionDegrees,WindSpeedMPH,WindSpeedGustMPH,Humidity,HourlyPrecipIn,Conditions,Clouds,dailyrainin,SoftwareType,DateUTC
2013-04-23 00:01:00,33.8,14.7,29.96,ENE,67,0.0,0.0,45,0.00,,CLR,0.00,VWS V14.01,2013-04-23 07:01:00,
2013-04-23 00:06:00,33.3,14.7,29.96,SE,132,0.0,0.0,46,0.00,,CLR,0.00,VWS V14.01,2013-04-23 07:06:00,
2013-04-23 00:11:00,32.9,14.9,29.96,SSW,207,0.0,3.1,47,0.00,,CLR,0.00,VWS V14.01,2013-04-23 07:11:00,
2013-04-23 00:16:00,32.4,14.9,29.96,South,190,0.0,0.0,48,0.00,,CLR,0.00,VWS V14.01,2013-04-23 07:16:00,
2013-04-23 00:21:00,32.4,15.4,29.96,ESE,111,0.0,2.7,49,0.00,,CLR,0.00,VWS V14.01,2013-04-23 07:21:00,
2013-04-23 00:26:00,32.4,15.8,29.96,ESE,110,0.0,0.0,50,0.00,,CLR,0.00,VWS V14.01,2013-04-23 07:26:00,
2013-04-23 00:31:00,32.4,15.8,29.96,ESE,110,0.0,0.0,50,0.00,,CLR,0.00,VWS V14.01,2013-04-23 07:31:00,
2013-04-23 00:36:00,32.4,15.8,29.96,ESE,110,0.0,0.0,50,0.00,,CLR,0.00,VWS V14.01,2013-04-23 07:36:00,
2013-04-23 00:41:00,32.4,15.8,29.96,East,92,0.0,0.0,50,0.00,,CLR,0.00,VWS V14.01,2013-04-23 07:41:00,
2013-04-23 00:46:00,32.2,15.6,29.96,East,86,0.0,0.0,50,0.00,,CLR,0.00,VWS V14.01,2013-04-23 07:46:00,
2013-04-23 00:51:00,32.0,15.5,29.96,East,86,0.0,0.0,50,0.00,,CLR,0.00,VWS V14.01,2013-04-23 07:51:00,
2013-04-23 00:56:00,31.6,15.1,29.96,East,86,0.0,0.0,50,0.00,,CLR,0.00,VWS V14.01,2013-04-23 07:56:00,
2013-04-23 01:01:00,31.3,15.3,29.96,East,86,0.0,0.0,51,0.00,,CLR,0.00,VWS V14.01,2013-04-23 08:01:00,
2013-04-23 01:06:00,31.3,15.3,29.96,East,88,3.1,3.1,51,0.00,,CLR,0.00,VWS V14.01,2013-04-23 08:06:00,
2013-04-23 01:11:00,31.5,15.9,29.96,East,88,3.1,3.1,52,0.00,,CLR,0.00,VWS V14.01,2013-04-23 08:11:00,
2013-04-23 01:16:00,31.6,16.0,29.96,East,88,2.2,2.2,52,0.00,,CLR,0.00,VWS V14.01,2013-04-23 08:16:00,
2013-04-23 01:21:00,31.6,16.0,29.96,East,88,0.0,0.0,52,0.00,,CLR,0.00,VWS V14.01,2013-04-23 08:21:00,
2013-04-23 01:26:00,31.5,15.9,29.96,East,88,0.0,0.0,52,0.00,,CLR,0.00,VWS V14.01,2013-04-23 08:26:00,
2013-04-23 01:31:00,31.3,15.7,29.96,East,88,0.0,0.0,52,0.00,,CLR,0.00,VWS V14.01,2013-04-23 08:31:00,
2013-04-23 01:36:00,31.1,15.5,29.96,East,88,0.0,0.0,52,0.00,,CLR,0.00,VWS V14.01,2013-04-23 08:36:00,
2013-04-23 01:41:00,30.9,15.4,29.96,East,88,0.0,0.0,52,0.00,,CLR,0.00,VWS V14.01,2013-04-23 08:41:00,
2013-04-23 01:46:00,30.6,15.0,29.96,East,88,0.0,0.0,52,0.00,,CLR,0.00,VWS V14.01,2013-04-23 08:46:00,
2013-04-23 01:51:00,29.7,14.2,29.96,East,88,0.0,0.0,52,0.00,,CLR,0.00,VWS V14.01,2013-04-23 08:51:00,
2013-04-23 01:56:00,29.3,14.3,29.96,East,88,0.0,0.0,53,0.00,,CLR,0.00,VWS V14.01,2013-04-23 08:56:00,
2013-04-23 02:01:00,29.1,14.6,29.96,East,88,0.0,0.0,54,0.00,,CLR,0.00,VWS V14.01,2013-04-23 09:01:00,
2013-04-23 02:06:00,29.3,15.1,29.96,East,88,0.0,0.0,55,0.00,,CLR,0.00,VWS V14.01,2013-04-23 09:06:00,
2013-04-23 02:11:00,29.5,15.7,29.96,East,88,3.1,3.1,56,0.00,,CLR,0.00,VWS V14.01,2013-04-23 09:11:00,
2013-04-23 02:16:00,30.0,16.6,29.96,East,88,2.7,2.7,57,0.00,,CLR,0.00,VWS V14.01,2013-04-23 09:16:00,
2013-04-23 02:21:00,30.2,16.8,29.96,ENE,72,2.7,2.7,57,0.00,,CLR,0.00,VWS V14.01,2013-04-23 09:21:00,
2013-04-23 02:26:00,30.2,16.8,29.96,ENE,71,2.7,2.7,57,0.00,,CLR,0.00,VWS V14.01,2013-04-23 09:26:00,
2013-04-23 02:31:00,30.4,16.6,29.96,ENE,71,2.2,2.7,56,0.00,,CLR,0.00,VWS V14.01,2013-04-23 09:31:00,
2013-04-23 02:36:00,30.4,16.2,29.96,ENE,71,2.2,2.7,55,0.00,,CLR,0.00,VWS V14.01,2013-04-23 09:36:00,
2013-04-23 02:41:00,30.4,16.2,29.96,ENE,71,0.0,0.0,55,0.00,,CLR,0.00,VWS V14.01,2013-04-23 09:41:00,
2013-04-23 02:46:00,30.2,15.6,29.96,ENE,72,0.0,0.0,54,0.00,,CLR,0.00,VWS V14.01,2013-04-23 09:46:00,
2013-04-23 02:51:00,30.0,15.4,29.96,ENE,72,0.0,0.0,54,0.00,,CLR,0.00,VWS V14.01,2013-04-23 09:51:00,
2013-04-23 02:56:00,29.7,15.1,29.96,ENE,72,0.0,0.0,54,0.00,,CLR,0.00,VWS V14.01,2013-04-23 09:56:00,
2013-04-23 03:01:00,29.3,14.7,29.96,ENE,72,0.0,0.0,54,0.00,,CLR,0.00,VWS V14.01,2013-04-23 10:01:00,
2013-04-23 03:06:00,28.6,14.1,29.96,ENE,72,0.0,0.0,54,0.00,,CLR,0.00,VWS V14.01,2013-04-23 10:06:00,
2013-04-23 03:11:00,28.2,13.7,29.96,ENE,72,0.0,0.0,54,0.00,,CLR,0.00,VWS V14.01,2013-04-23 10:11:00,
2013-04-23 03:16:00,28.2,14.1,29.96,ENE,72,0.0,0.0,55,0.00,,CLR,0.00,VWS V14.01,2013-04-23 10:16:00,
2013-04-23 03:21:00,28.4,14.7,29.96,ENE,72,2.2,2.2,56,0.00,,CLR,0.00,VWS V14.01,2013-04-23 10:21:00,
2013-04-23 03:26:00,28.4,14.7,29.96,ENE,72,0.0,0.0,56,0.00,,CLR,0.00,VWS V14.01,2013-04-23 10:26:00,
2013-04-23 03:31:00,28.6,15.3,29.96,ENE,72,0.0,0.0,57,0.00,,CLR,0.00,VWS V14.01,2013-04-23 10:31:00,
2013-04-23 03:35:00,28.8,15.5,29.96,ENE,72,0.0,0.0,57,0.00,,CLR,0.00,VWS V14.01,2013-04-23 10:35:00,
2013-04-23 03:40:00,28.2,14.6,29.93,ENE,72,0.0,0.0,56,0.00,,CLR,0.00,VWS V14.01,2013-04-23 10:40:00,
2013-04-23 03:45:00,28.0,14.8,29.93,ENE,72,0.0,0.0,57,0.00,,CLR,0.00,VWS V14.01,2013-04-23 10:45:00,
2013-04-23 03:50:00,28.4,15.5,29.93,ENE,72,2.2,2.2,58,0.00,,CLR,0.00,VWS V14.01,2013-04-23 10:50:00,
2013-04-23 03:55:00,28.6,15.7,29.93,ENE,72,2.2,2.7,58,0.00,,CLR,0.00,VWS V14.01,2013-04-23 10:55:00,
2013-04-23 04:00:00,28.8,15.9,29.93,ENE,72,3.6,3.6,58,0.00,,FEW150,0.00,VWS V14.01,2013-04-23 11:00:00,
2013-04-23 04:05:00,28.8,15.9,29.93,ENE,72,2.7,3.6,58,0.00,,FEW150,0.00,VWS V14.01,2013-04-23 11:05:00,
2013-04-23 04:10:00,28.8,16.2,29.93,ENE,73,0.0,2.7,59,0.00,,FEW150,0.00,VWS V14.01,2013-04-23 11:10:00,
2013-04-23 04:15:00,28.6,15.7,29.93,ENE,73,0.0,0.0,58,0.00,,FEW150,0.00,VWS V14.01,2013-04-23 11:15:00,
2013-04-23 04:20:00,28.2,15.4,29.93,ENE,73,4.0,4.0,58,0.00,,FEW150,0.00,VWS V14.01,2013-04-23 11:20:00,
2013-04-23 04:25:00,27.9,15.0,29.93,ENE,73,0.0,0.0,58,0.00,,FEW150,0.00,VWS V14.01,2013-04-23 11:25:00,
2013-04-23 04:30:00,27.7,14.9,29.93,ENE,73,0.0,2.7,58,0.00,,FEW150,0.00,VWS V14.01,2013-04-23 11:30:00,
2013-04-23 04:35:00,27.7,15.2,29.93,ENE,73,0.0,2.2,59,0.00,,FEW150,0.00,VWS V14.01,2013-04-23 11:35:00,
2013-04-23 04:40:00,27.7,15.2,29.93,ENE,73,0.0,0.0,59,0.00,,FEW150,0.00,VWS V14.01,2013-04-23 11:40:00,
2013-04-23 04:45:00,27.5,15.1,29.93,ENE,73,0.0,0.0,59,0.00,,FEW150,0.00,VWS V14.01,2013-04-23 11:45:00,
2013-04-23 04:50:00,27.5,15.1,29.93,ENE,73,2.7,2.7,59,0.00,,FEW150,0.00,VWS V14.01,2013-04-23 11:50:00,
2013-04-23 04:55:00,27.3,14.9,29.93,ENE,73,0.0,0.0,59,0.00,,FEW150,0.00,VWS V14.01,2013-04-23 11:55:00,
2013-04-23 05:00:00,27.1,14.7,29.93,ENE,73,0.0,0.0,59,0.00,,FEW150,0.00,VWS V14.01,2013-04-23 12:00:00,
2013-04-23 05:05:00,27.3,15.3,29.93,ENE,73,0.0,0.0,60,0.00,,FEW150,0.00,VWS V14.01,2013-04-23 12:05:00,
2013-04-23 05:10:00,27.5,15.8,29.93,ENE,73,0.0,0.0,61,0.00,,FEW150,0.00,VWS V14.01,2013-04-23 12:10:00,
2013-04-23 05:15:00,27.5,15.8,29.93,ENE,73,0.0,0.0,61,0.00,,FEW150,0.00,VWS V14.01,2013-04-23 12:15:00,
2013-04-23 05:20:00,27.3,15.7,29.93,ENE,73,0.0,0.0,61,0.00,,FEW150,0.00,VWS V14.01,2013-04-23 12:20:00,
2013-04-23 05:25:00,27.3,15.7,29.93,ENE,73,0.0,0.0,61,0.00,,FEW150,0.00,VWS V14.01,2013-04-23 12:25:00,
2013-04-23 05:30:00,27.1,15.5,29.93,ENE,73,0.0,0.0,61,0.00,,FEW150,0.00,VWS V14.01,2013-04-23 12:30:00,
2013-04-23 05:35:00,27.1,15.5,29.93,ENE,73,0.0,0.0,61,0.00,,FEW150,0.00,VWS V14.01,2013-04-23 12:35:00,
2013-04-23 05:40:00,27.3,15.7,29.93,ENE,73,0.0,0.0,61,0.00,,FEW150,0.00,VWS V14.01,2013-04-23 12:40:00,
2013-04-23 05:45:00,27.3,15.7,29.93,ENE,73,0.0,0.0,61,0.00,,FEW150,0.00,VWS V14.01,2013-04-23 12:45:00,
2013-04-23 05:50:00,27.5,15.8,29.93,ENE,73,0.0,0.0,61,0.00,,FEW150,0.00,VWS V14.01,2013-04-23 12:50:00,
2013-04-23 05:55:00,27.5,16.2,29.93,ENE,73,0.0,0.0,62,0.00,,FEW150,0.00,VWS V14.01,2013-04-23 12:55:00,
2013-04-23 06:00:00,27.7,16.4,29.93,ENE,73,0.0,0.0,62,0.00,,SCT170,0.00,VWS V14.01,2013-04-23 13:00:00,
2013-04-23 06:05:00,27.9,16.5,29.93,ENE,73,0.0,0.0,62,0.00,,SCT170,0.00,VWS V14.01,2013-04-23 13:05:00,
2013-04-23 06:10:00,28.2,17.3,29.90,ENE,73,0.0,0.0,63,0.00,,SCT170,0.00,VWS V14.01,2013-04-23 13:10:00,
2013-04-23 06:15:00,28.4,17.4,29.90,ENE,73,0.0,0.0,63,0.00,,SCT170,0.00,VWS V14.01,2013-04-23 13:15:00,
2013-04-23 06:20:00,28.8,17.4,29.90,ENE,73,0.0,0.0,62,0.00,,SCT170,0.00,VWS V14.01,2013-04-23 13:20:00,
2013-04-23 06:25:00,29.1,17.7,29.90,ENE,73,0.0,0.0,62,0.00,,SCT170,0.00,VWS V14.01,2013-04-23 13:25:00,
2013-04-23 06:30:00,29.5,18.1,29.90,ENE,73,0.0,0.0,62,0.00,,SCT170,0.00,VWS V14.01,2013-04-23 13:30:00,
2013-04-23 06:35:00,29.8,18.4,29.90,ENE,73,0.0,0.0,62,0.00,,SCT170,0.00,VWS V14.01,2013-04-23 13:35:00,
2013-04-23 06:40:00,30.2,18.8,29.90,ENE,73,0.0,0.0,62,0.00,,SCT170,0.00,VWS V14.01,2013-04-23 13:40:00,
2013-04-23 06:45:00,30.6,18.3,29.90,ENE,73,0.0,0.0,60,0.00,,SCT170,0.00,VWS V14.01,2013-04-23 13:45:00,
2013-04-23 06:50:00,30.9,18.3,29.90,ENE,73,0.0,0.0,59,0.00,,SCT170,0.00,VWS V14.01,2013-04-23 13:50:00,
2013-04-23 06:55:00,31.3,18.2,29.90,ENE,73,0.0,0.0,58,0.00,,SCT170,0.00,VWS V14.01,2013-04-23 13:55:00,
2013-04-23 07:00:00,31.8,17.9,29.90,ENE,66,0.0,0.0,56,0.00,,OVC160,0.00,VWS V14.01,2013-04-23 14:00:00,
2013-04-23 07:05:00,32.2,17.8,29.90,ENE,66,0.0,0.0,55,0.00,,OVC160,0.00,VWS V14.01,2013-04-23 14:05:00,
2013-04-23 07:10:00,32.5,17.8,29.90,ENE,66,2.7,2.7,54,0.00,,OVC160,0.00,VWS V14.01,2013-04-23 14:10:00,
2013-04-23 07:15:00,32.9,17.7,29.90,ENE,66,0.0,0.0,53,0.00,,OVC160,0.00,VWS V14.01,2013-04-23 14:15:00,
2013-04-23 07:20:00,33.4,18.2,29.90,ENE,66,0.0,0.0,53,0.00,,OVC160,0.00,VWS V14.01,2013-04-23 14:20:00,
2013-04-23 07:25:00,34.0,18.2,29.90,ENE,66,0.0,0.0,52,0.00,,OVC160,0.00,VWS V14.01,2013-04-23 14:25:00,
2013-04-23 07:30:00,34.3,18.1,29.90,ENE,66,0.0,0.0,51,0.00,,OVC160,0.00,VWS V14.01,2013-04-23 14:30:00,
2013-04-23 07:35:00,34.9,18.1,29.90,ENE,66,2.2,2.7,50,0.00,,OVC160,0.00,VWS V14.01,2013-04-23 14:35:00,
2013-04-23 07:40:00,35.2,18.5,29.90,ENE,66,0.0,0.0,50,0.00,,OVC160,0.00,VWS V14.01,2013-04-23 14:40:00,
2013-04-23 07:45:00,35.6,18.3,29.90,SSE,152,0.0,0.0,49,0.00,,OVC160,0.00,VWS V14.01,2013-04-23 14:45:00,
2013-04-23 07:50:00,36.1,18.8,29.90,SSE,153,2.7,2.7,49,0.00,,OVC160,0.00,VWS V14.01,2013-04-23 14:50:00,
2013-04-23 07:55:00,36.5,18.7,29.90,SSE,153,0.0,0.0,48,0.00,,OVC160,0.00,VWS V14.01,2013-04-23 14:55:00,
2013-04-23 08:00:00,36.9,18.0,29.90,SSE,153,0.0,2.2,46,0.00,,OVC160,0.00,VWS V14.01,2013-04-23 15:00:00,
2013-04-23 08:05:00,37.4,18.0,29.90,East,100,0.0,0.0,45,0.00,,OVC160,0.00,VWS V14.01,2013-04-23 15:05:00,
2013-04-23 08:10:00,37.8,17.3,29.90,East,98,0.0,0.0,43,0.00,,OVC160,0.00,VWS V14.01,2013-04-23 15:10:00,
2013-04-23 08:15:00,38.1,17.6,29.90,ENE,62,0.0,0.0,43,0.00,,OVC160,0.00,VWS V14.01,2013-04-23 15:15:00,
2013-04-23 08:20:00,38.7,18.1,29.90,ENE,61,0.0,0.0,43,0.00,,OVC160,0.00,VWS V14.01,2013-04-23 15:20:00,
2013-04-23 08:25:00,39.2,18.0,29.90,ENE,62,2.2,2.2,42,0.00,,OVC160,0.00,VWS V14.01,2013-04-23 15:25:00,
2013-04-23 08:30:00,39.6,17.8,29.90,ENE,62,2.7,2.7,41,0.00,,OVC160,0.00,VWS V14.01,2013-04-23 15:30:00,
2013-04-23 08:35:00,39.9,18.1,29.90,ESE,119,2.7,2.7,41,0.00,,OVC160,0.00,VWS V14.01,2013-04-23 15:35:00,
2013-04-23 08:40:00,40.3,17.9,29.90,East,88,2.7,3.1,40,0.00,,OVC160,0.00,VWS V14.01,2013-04-23 15:40:00,
2013-04-23 08:45:00,40.5,18.1,29.90,ENE,63,0.0,2.7,40,0.00,,OVC160,0.00,VWS V14.01,2013-04-23 15:45:00,
2013-04-23 08:50:00,40.8,18.4,29.90,ENE,76,3.6,3.6,40,0.00,,OVC160,0.00,VWS V14.01,2013-04-23 15:50:00,
2013-04-23 08:55:00,41.0,18.0,29.90,ENE,63,3.6,4.0,39,0.00,,OVC160,0.00,VWS V14.01,2013-04-23 15:55:00,
2013-04-23 09:00:00,41.2,18.1,29.90,ENE,68,2.7,2.7,39,0.00,,OVC160,0.00,VWS V14.01,2013-04-23 16:00:00,
2013-04-23 09:05:00,41.5,18.4,29.90,ENE,71,0.0,0.0,39,0.00,,OVC160,0.00,VWS V14.01,2013-04-23 16:05:00,
2013-04-23 09:10:00,41.7,18.6,29.90,ENE,70,3.1,3.6,39,0.00,,OVC160,0.00,VWS V14.01,2013-04-23 16:10:00,
2013-04-23 09:15:00,42.3,19.1,29.90,ENE,68,0.0,0.0,39,0.00,,OVC160,0.00,VWS V14.01,2013-04-23 16:15:00,
2013-04-23 09:20:00,42.8,19.0,29.90,ENE,68,0.0,2.2,38,0.00,,OVC160,0.00,VWS V14.01,2013-04-23 16:20:00,
2013-04-23 09:25:00,43.3,19.5,29.90,ENE,64,2.7,2.7,38,0.00,,OVC160,0.00,VWS V14.01,2013-04-23 16:25:00,
2013-04-23 09:30:00,43.7,19.8,29.90,ENE,64,3.1,3.1,38,0.00,,OVC160,0.00,VWS V14.01,2013-04-23 16:30:00,
2013-04-23 09:35:00,43.9,18.7,29.90,ENE,62,0.0,2.7,36,0.00,,OVC160,0.00,VWS V14.01,2013-04-23 16:35:00,
2013-04-23 09:40:00,44.2,19.0,29.90,ENE,62,0.0,0.0,36,0.00,,OVC160,0.00,VWS V14.01,2013-04-23 16:40:00,
2013-04-23 09:45:00,45.0,19.0,29.90,SE,128,2.7,2.7,35,0.00,,OVC160,0.00,VWS V14.01,2013-04-23 16:45:00,
2013-04-23 09:50:00,45.9,16.2,29.90,WSW,239,8.3,8.3,30,0.00,,OVC160,0.00,VWS V14.01,2013-04-23 16:50:00,
2013-04-23 09:55:00,46.6,16.0,29.90,WSW,248,6.3,6.3,29,0.00,,OVC160,0.00,VWS V14.01,2013-04-23 16:55:00,
2013-04-23 10:00:00,47.1,16.5,29.90,West,260,6.3,6.3,29,0.00,,OVC200,0.00,VWS V14.01,2013-04-23 17:00:00,
2013-04-23 10:05:00,47.5,16.0,29.90,WSW,243,8.3,8.3,28,0.00,,OVC200,0.00,VWS V14.01,2013-04-23 17:05:00,
2013-04-23 10:10:00,48.0,16.5,29.90,WSW,239,5.8,5.8,28,0.00,,OVC200,0.00,VWS V14.01,2013-04-23 17:10:00,
2013-04-23 10:15:00,48.7,17.1,29.90,WSW,247,6.3,7.6,28,0.00,,OVC200,0.00,VWS V14.01,2013-04-23 17:15:00,
2013-04-23 10:20:00,49.1,16.6,29.90,WSW,257,7.6,7.6,27,0.00,,OVC200,0.00,VWS V14.01,2013-04-23 17:20:00,
2013-04-23 10:25:00,49.3,16.7,29.90,SW,226,7.6,8.1,27,0.00,,OVC200,0.00,VWS V14.01,2013-04-23 17:25:00,
2013-04-23 10:30:00,49.6,17.0,29.90,WSW,253,7.6,7.6,27,0.00,,OVC200,0.00,VWS V14.01,2013-04-23 17:30:00,
2013-04-23 10:35:00,50.2,17.5,29.90,WSW,246,8.1,8.7,27,0.00,,OVC200,0.00,VWS V14.01,2013-04-23 17:35:00,
2013-04-23 10:40:00,50.7,18.0,29.90,WSW,247,7.6,7.6,27,0.00,,OVC200,0.00,VWS V14.01,2013-04-23 17:40:00,
2013-04-23 10:45:00,51.3,18.4,29.90,West,259,8.3,8.3,27,0.00,,OVC200,0.00,VWS V14.01,2013-04-23 17:45:00,
2013-04-23 10:50:00,51.6,18.8,29.90,SW,230,8.3,8.3,27,0.00,,OVC200,0.00,VWS V14.01,2013-04-23 17:50:00,
2013-04-23 10:55:00,51.8,18.9,29.90,WSW,237,4.9,8.1,27,0.00,,OVC200,0.00,VWS V14.01,2013-04-23 17:55:00,
2013-04-23 11:00:00,52.3,19.4,29.90,WSW,256,8.3,8.3,27,0.00,,OVC200,0.00,VWS V14.01,2013-04-23 18:00:00,
2013-04-23 11:05:00,52.3,19.4,29.90,West,280,8.7,8.7,27,0.00,,OVC200,0.00,VWS V14.01,2013-04-23 18:05:00,
2013-04-23 11:10:00,52.5,19.5,29.90,WSW,239,10.1,10.1,27,0.00,,OVC200,0.00,VWS V14.01,2013-04-23 18:10:00,
2013-04-23 11:15:00,52.7,19.7,29.90,SSW,208,6.3,8.7,27,0.00,,OVC200,0.00,VWS V14.01,2013-04-23 18:15:00,
2013-04-23 11:20:00,53.4,20.3,29.90,WNW,287,4.9,8.1,27,0.00,,OVC200,0.00,VWS V14.01,2013-04-23 18:20:00,
2013-04-23 11:25:00,52.7,18.8,29.90,SW,236,4.0,5.8,26,0.00,,OVC200,0.00,VWS V14.01,2013-04-23 18:25:00,
2013-04-23 11:30:00,53.6,19.6,29.90,WSW,254,5.4,8.3,26,0.00,,OVC200,0.00,VWS V14.01,2013-04-23 18:30:00,
2013-04-23 11:35:00,53.2,19.3,29.90,NNW,335,2.2,3.6,26,0.00,,OVC200,0.00,VWS V14.01,2013-04-23 18:35:00,
2013-04-23 11:40:00,53.4,20.3,29.90,SW,224,4.0,8.3,27,0.00,,OVC200,0.00,VWS V14.01,2013-04-23 18:40:00,
2013-04-23 11:45:00,54.7,20.5,29.90,West,270,3.6,6.3,26,0.00,,OVC200,0.00,VWS V14.01,2013-04-23 18:45:00,
2013-04-23 11:50:00,54.9,21.5,29.90,SSW,210,6.3,8.1,27,0.00,,OVC200,0.00,VWS V14.01,2013-04-23 18:50:00,
2013-04-23 11:55:00,55.8,21.4,29.87,South,188,6.3,6.3,26,0.00,,OVC200,0.00,VWS V14.01,2013-04-23 18:55:00,
2013-04-23 12:00:00,56.1,20.8,29.87,SW,233,4.9,6.3,25,0.00,,BKN200,0.00,VWS V14.01,2013-04-23 19:00:00,
2013-04-23 12:05:00,55.8,20.5,29.87,WNW,287,0.0,0.0,25,0.00,,BKN200,0.00,VWS V14.01,2013-04-23 19:05:00,
2013-04-23 12:10:00,55.0,20.8,29.87,SSE,165,3.6,3.6,26,0.00,,BKN200,0.00,VWS V14.01,2013-04-23 19:10:00,
2013-04-23 12:15:00,54.5,20.3,29.87,NNW,338,0.0,2.2,26,0.00,,BKN200,0.00,VWS V14.01,2013-04-23 19:15:00,
2013-04-23 12:20:00,54.9,20.6,29.87,SSW,206,3.1,3.1,26,0.00,,BKN200,0.00,VWS V14.01,2013-04-23 19:20:00,
2013-04-23 12:25:00,55.8,21.4,29.87,SSW,192,2.7,4.9,26,0.00,,BKN200,0.00,VWS V14.01,2013-04-23 19:25:00,
2013-04-23 12:30:00,55.9,21.6,29.87,SSW,213,7.6,8.3,26,0.00,,BKN200,0.00,VWS V14.01,2013-04-23 19:30:00,
2013-04-23 12:35:00,56.3,21.9,29.87,East,89,0.0,0.0,26,0.00,,BKN200,0.00,VWS V14.01,2013-04-23 19:35:00,
2013-04-23 12:40:00,55.9,20.6,29.87,ESE,122,3.6,3.6,25,0.00,,BKN200,0.00,VWS V14.01,2013-04-23 19:40:00,
2013-04-23 12:45:00,55.9,20.6,29.87,North,6,2.7,6.3,25,0.00,,BKN200,0.00,VWS V14.01,2013-04-23 19:45:00,
2013-04-23 12:50:00,55.4,20.2,29.87,ENE,58,3.6,3.6,25,0.00,,BKN200,0.00,VWS V14.01,2013-04-23 19:50:00,
2013-04-23 12:55:00,55.2,20.0,29.87,NE,34,4.9,4.9,25,0.00,,BKN200,0.00,VWS V14.01,2013-04-23 19:55:00,
2013-04-23 13:00:00,54.7,20.5,29.87,NE,54,2.7,3.6,26,0.00,,BKN200,0.00,VWS V14.01,2013-04-23 20:00:00,
2013-04-23 13:05:00,54.9,20.6,29.87,ENE,70,2.7,4.0,26,0.00,,BKN200,0.00,VWS V14.01,2013-04-23 20:05:00,
2013-04-23 13:10:00,55.0,20.8,29.84,NE,39,3.1,3.1,26,0.00,,BKN200,0.00,VWS V14.01,2013-04-23 20:10:00,
2013-04-23 13:15:00,54.9,20.6,29.84,East,84,3.1,4.0,26,0.00,,BKN200,0.00,VWS V14.01,2013-04-23 20:15:00,
2013-04-23 13:20:00,54.9,20.6,29.84,NE,50,5.4,5.4,26,0.00,,BKN200,0.00,VWS V14.01,2013-04-23 20:20:00,
2013-04-23 13:25:00,54.9,19.7,29.84,NW,324,3.1,3.6,25,0.00,,BKN200,0.00,VWS V14.01,2013-04-23 20:25:00,
2013-04-23 13:30:00,54.5,20.3,29.84,NNE,21,6.3,6.3,26,0.00,,BKN200,0.00,VWS V14.01,2013-04-23 20:30:00,
2013-04-23 13:35:00,54.1,19.1,29.84,NW,324,3.1,6.3,25,0.00,,BKN200,0.00,VWS V14.01,2013-04-23 20:35:00,
2013-04-23 13:40:00,54.5,20.3,29.84,WSW,258,5.4,7.2,26,0.00,,BKN200,0.00,VWS V14.01,2013-04-23 20:40:00,
2013-04-23 13:45:00,54.7,19.6,29.84,ENE,66,3.1,3.6,25,0.00,,BKN200,0.00,VWS V14.01,2013-04-23 20:45:00,
2013-04-23 13:50:00,54.5,19.4,29.84,NNE,14,3.1,3.6,25,0.00,,BKN200,0.00,VWS V14.01,2013-04-23 20:50:00,
2013-04-23 13:55:00,54.3,17.3,29.84,NNW,327,5.4,6.3,23,0.00,,BKN200,0.00,VWS V14.01,2013-04-23 20:55:00,
2013-04-23 14:00:00,53.8,16.9,29.84,NNW,335,4.9,5.8,23,0.00,,SCT200,0.00,VWS V14.01,2013-04-23 21:00:00,
2013-04-23 14:05:00,54.0,17.0,29.84,NW,310,2.7,3.1,23,0.00,,SCT200,0.00,VWS V14.01,2013-04-23 21:05:00,
2013-04-23 14:10:00,54.0,17.0,29.84,WNW,299,0.0,3.1,23,0.00,,SCT200,0.00,VWS V14.01,2013-04-23 21:10:00,
2013-04-23 14:15:00,53.6,16.7,29.84,NW,310,0.0,2.2,23,0.00,,SCT200,0.00,VWS V14.01,2013-04-23 21:15:00,
2013-04-23 14:20:00,54.0,17.0,29.84,NW,326,5.8,6.3,23,0.00,,SCT200,0.00,VWS V14.01,2013-04-23 21:20:00,
2013-04-23 14:25:00,53.6,16.7,29.84,WSW,254,0.0,4.9,23,0.00,,SCT200,0.00,VWS V14.01,2013-04-23 21:25:00,
2013-04-23 14:30:00,54.0,17.0,29.84,NNW,342,3.6,6.3,23,0.00,,SCT200,0.00,VWS V14.01,2013-04-23 21:30:00,
2013-04-23 14:35:00,54.3,14.1,29.84,NNW,327,4.0,5.8,20,0.00,,SCT200,0.00,VWS V14.01,2013-04-23 21:35:00,
2013-04-23 14:40:00,54.3,17.3,29.84,NNE,25,7.6,7.6,23,0.00,,SCT200,0.00,VWS V14.01,2013-04-23 21:40:00,
2013-04-23 14:45:00,54.7,17.6,29.84,NNE,14,4.0,4.0,23,0.00,,SCT200,0.00,VWS V14.01,2013-04-23 21:45:00,
2013-04-23 14:50:00,54.9,17.8,29.84,NE,44,0.0,2.2,23,0.00,,SCT200,0.00,VWS V14.01,2013-04-23 21:50:00,
2013-04-23 14:55:00,54.3,17.3,29.84,NW,325,3.6,3.6,23,0.00,,SCT200,0.00,VWS V14.01,2013-04-23 21:55:00,
2013-04-23 15:00:00,54.5,17.5,29.84,NNE,22,5.4,6.3,23,0.00,,BKN080,0.00,VWS V14.01,2013-04-23 22:00:00,
2013-04-23 15:05:00,54.9,17.8,29.84,NNE,16,3.1,4.9,23,0.00,,BKN080,0.00,VWS V14.01,2013-04-23 22:05:00,
2013-04-23 15:10:00,54.7,17.6,29.84,North,10,0.0,3.1,23,0.00,,BKN080,0.00,VWS V14.01,2013-04-23 22:10:00,
2013-04-23 15:15:00,54.3,17.3,29.84,ENE,60,2.7,3.1,23,0.00,,BKN080,0.00,VWS V14.01,2013-04-23 22:15:00,
2013-04-23 15:20:00,54.7,17.6,29.84,NNE,25,2.7,4.0,23,0.00,,BKN080,0.00,VWS V14.01,2013-04-23 22:20:00,
2013-04-23 15:25:00,54.5,17.5,29.81,East,79,0.0,0.0,23,0.00,,BKN080,0.00,VWS V14.01,2013-04-23 22:25:00,
2013-04-23 15:30:00,54.7,17.6,29.81,ENE,76,3.1,3.6,23,0.00,,BKN080,0.00,VWS V14.01,2013-04-23 22:30:00,
2013-04-23 15:35:00,54.9,17.8,29.81,ENE,74,4.0,5.8,23,0.00,,BKN080,0.00,VWS V14.01,2013-04-23 22:35:00,
2013-04-23 15:40:00,54.9,14.6,29.81,NW,320,2.7,3.6,20,0.00,,BKN080,0.00,VWS V14.01,2013-04-23 22:40:00,
2013-04-23 15:45:00,55.0,14.7,29.81,ENE,64,6.3,6.3,20,0.00,,BKN080,0.00,VWS V14.01,2013-04-23 22:45:00,
2013-04-23 15:50:00,55.6,17.4,29.81,NNE,18,3.6,5.8,22,0.00,,BKN080,0.00,VWS V14.01,2013-04-23 22:50:00,
2013-04-23 15:55:00,56.1,15.6,29.81,NNE,21,2.2,2.7,20,0.00,,BKN080,0.00,VWS V14.01,2013-04-23 22:55:00,
2013-04-23 16:00:00,56.3,18.0,29.81,NNE,12,4.9,8.1,22,0.00,,BKN080,0.00,VWS V14.01,2013-04-23 23:00:00,
2013-04-23 16:05:00,55.9,15.5,29.81,NNW,331,4.0,4.0,20,0.00,,BKN080,0.00,VWS V14.01,2013-04-23 23:05:00,
2013-04-23 16:10:00,55.0,14.7,29.81,NNW,328,4.0,6.3,20,0.00,,BKN080,0.00,VWS V14.01,2013-04-23 23:10:00,
2013-04-23 16:15:00,55.0,14.7,29.81,NW,324,0.0,0.0,20,0.00,,BKN080,0.00,VWS V14.01,2013-04-23 23:15:00,
2013-04-23 16:20:00,55.4,15.0,29.81,NNW,336,3.1,5.8,20,0.00,,BKN080,0.00,VWS V14.01,2013-04-23 23:20:00,
2013-04-23 16:25:00,56.3,15.8,29.81,NNW,339,4.0,5.4,20,0.00,,BKN080,0.00,VWS V14.01,2013-04-23 23:25:00,
2013-04-23 16:30:00,56.7,18.3,29.81,North,5,4.0,4.0,22,0.00,,BKN080,0.00,VWS V14.01,2013-04-23 23:30:00,
2013-04-23 16:35:00,57.4,15.5,29.81,NE,41,3.6,4.0,19,0.00,,BKN080,0.00,VWS V14.01,2013-04-23 23:35:00,
2013-04-23 16:40:00,58.1,16.1,29.81,NNE,18,5.4,8.7,19,0.00,,BKN080,0.00,VWS V14.01,2013-04-23 23:40:00,
2013-04-23 16:45:00,57.9,15.9,29.81,NE,36,5.8,6.3,19,0.00,,BKN080,0.00,VWS V14.01,2013-04-23 23:45:00,
2013-04-23 16:50:00,57.4,15.5,29.81,NE,38,4.0,4.9,19,0.00,,BKN080,0.00,VWS V14.01,2013-04-23 23:50:00,
2013-04-23 16:55:00,56.8,16.2,29.81,NW,325,4.0,4.9,20,0.00,,BKN080,0.00,VWS V14.01,2013-04-23 23:55:00,
2013-04-23 17:00:00,56.1,15.6,29.81,NNW,329,0.0,0.0,20,0.00,,SHRA,0.00,VWS V14.01,2013-04-24 00:00:00,
2013-04-23 17:05:00,56.1,15.6,29.81,NNE,23,4.9,8.1,20,0.00,,SHRA,0.00,VWS V14.01,2013-04-24 00:05:00,
2013-04-23 17:10:00,56.8,16.2,29.81,NNE,33,3.6,6.3,20,0.00,,SHRA,0.00,VWS V14.01,2013-04-24 00:10:00,
2013-04-23 17:15:00,58.6,16.5,29.81,NE,42,4.9,6.3,19,0.00,,SHRA,0.00,VWS V14.01,2013-04-24 00:15:00,
2013-04-23 17:20:00,58.8,16.7,29.81,ENE,71,4.0,4.0,19,0.00,,SHRA,0.00,VWS V14.01,2013-04-24 00:20:00,
2013-04-23 17:25:00,59.2,17.0,29.81,NE,43,2.7,3.1,19,0.00,,SHRA,0.00,VWS V14.01,2013-04-24 00:25:00,
2013-04-23 17:30:00,60.1,17.7,29.81,ENE,61,3.1,4.0,19,0.00,,SHRA,0.00,VWS V14.01,2013-04-24 00:30:00,
2013-04-23 17:34:00,60.6,18.2,29.81,NE,51,4.5,5.8,19,0.00,,SHRA,0.00,VWS V14.01,2013-04-24 00:34:00,
2013-04-23 17:39:00,61.0,18.5,29.81,NW,322,2.2,3.1,19,0.00,,SHRA,0.00,VWS V14.01,2013-04-24 00:39:00,
2013-04-23 17:44:00,61.0,18.5,29.81,NNW,328,0.0,0.0,19,0.00,,SHRA,0.00,VWS V14.01,2013-04-24 00:44:00,
2013-04-23 17:49:00,62.4,19.6,29.81,ENE,68,2.7,2.7,19,0.00,,SHRA,0.00,VWS V14.01,2013-04-24 00:49:00,
2013-04-23 17:54:00,61.7,19.0,29.81,NNE,15,3.1,3.6,19,0.00,,SHRA,0.00,VWS V14.01,2013-04-24 00:54:00,
2013-04-23 17:59:00,61.0,18.5,29.81,NE,47,3.6,4.0,19,0.00,,BKN085,0.00,VWS V14.01,2013-04-24 00:59:00,
2013-04-23 18:04:00,62.1,19.3,29.81,NNE,33,3.1,4.9,19,0.00,,BKN085,0.00,VWS V14.01,2013-04-24 01:04:00,
2013-04-23 18:09:00,60.6,18.2,29.81,NNW,331,3.1,3.6,19,0.00,,BKN085,0.00,VWS V14.01,2013-04-24 01:09:00,
2013-04-23 18:14:00,60.1,17.7,29.81,NNW,328,2.2,2.7,19,0.00,,BKN085,0.00,VWS V14.01,2013-04-24 01:14:00,
2013-04-23 18:19:00,62.1,19.3,29.81,NNE,33,0.0,0.0,19,0.00,,BKN085,0.00,VWS V14.01,2013-04-24 01:19:00,
2013-04-23 18:24:00,64.0,19.7,29.81,ENE,77,2.2,2.2,18,0.00,,BKN085,0.00,VWS V14.01,2013-04-24 01:24:00,
2013-04-23 18:29:00,63.5,19.3,29.81,ENE,78,0.0,2.2,18,0.00,,BKN085,0.00,VWS V14.01,2013-04-24 01:29:00,
2013-04-23 18:34:00,61.9,19.2,29.81,ENE,72,2.7,3.1,19,0.00,,BKN085,0.00,VWS V14.01,2013-04-24 01:34:00,
2013-04-23 18:39:00,61.2,18.6,29.81,East,84,0.0,0.0,19,0.00,,BKN085,0.00,VWS V14.01,2013-04-24 01:39:00,
2013-04-23 18:44:00,60.8,18.3,29.81,East,84,0.0,0.0,19,0.00,,BKN085,0.00,VWS V14.01,2013-04-24 01:44:00,
2013-04-23 18:49:00,59.2,17.0,29.81,East,79,3.1,3.1,19,0.00,,BKN085,0.00,VWS V14.01,2013-04-24 01:49:00,
2013-04-23 18:54:00,57.9,15.9,29.81,NNW,341,3.1,3.1,19,0.00,,BKN085,0.00,VWS V14.01,2013-04-24 01:54:00,
2013-04-23 18:59:00,56.8,16.2,29.81,NNW,339,0.0,0.0,20,0.00,,BKN090,0.00,VWS V14.01,2013-04-24 01:59:00,
2013-04-23 19:04:00,56.3,15.8,29.81,NNW,342,0.0,0.0,20,0.00,,BKN090,0.00,VWS V14.01,2013-04-24 02:04:00,
2013-04-23 19:09:00,55.8,15.3,29.81,NNW,344,2.7,2.7,20,0.00,,BKN090,0.00,VWS V14.01,2013-04-24 02:09:00,
2013-04-23 19:14:00,54.9,14.6,29.81,NNW,331,4.0,4.0,20,0.00,,BKN090,0.00,VWS V14.01,2013-04-24 02:14:00,
2013-04-23 19:20:00,54.7,14.4,29.81,NNW,331,0.0,0.0,20,0.00,,BKN090,0.00,VWS V14.01,2013-04-24 02:20:00,
2013-04-23 19:25:00,54.1,14.0,29.81,NW,325,0.0,0.0,20,0.00,,BKN090,0.00,VWS V14.01,2013-04-24 02:25:00,
2013-04-23 19:30:00,53.6,13.5,29.81,NW,325,0.0,0.0,20,0.00,,BKN090,0.00,VWS V14.01,2013-04-24 02:30:00,
2013-04-23 19:35:00,52.5,13.7,29.81,NW,325,0.0,0.0,21,0.00,,BKN090,0.00,VWS V14.01,2013-04-24 02:35:00,
2013-04-23 19:40:00,52.5,13.7,29.81,NW,325,0.0,0.0,21,0.00,,BKN090,0.00,VWS V14.01,2013-04-24 02:40:00,
2013-04-23 19:45:00,52.0,13.3,29.81,NW,325,0.0,0.0,21,0.00,,BKN090,0.00,VWS V14.01,2013-04-24 02:45:00,
2013-04-23 19:50:00,50.9,12.4,29.81,NW,325,0.0,0.0,21,0.00,,BKN090,0.00,VWS V14.01,2013-04-24 02:50:00,
2013-04-23 19:55:00,49.3,14.0,29.81,NW,325,2.2,2.2,24,0.00,,BKN090,0.00,VWS V14.01,2013-04-24 02:55:00,
2013-04-23 20:00:00,47.8,12.8,29.81,NW,325,0.0,0.0,24,0.00,,SCT090,0.00,VWS V14.01,2013-04-24 03:00:00,
2013-04-23 20:05:00,47.1,14.9,29.81,NW,325,0.0,0.0,27,0.00,,SCT090,0.00,VWS V14.01,2013-04-24 03:05:00,
2013-04-23 20:10:00,46.4,14.2,29.81,NW,325,0.0,0.0,27,0.00,,SCT090,0.00,VWS V14.01,2013-04-24 03:10:00,
2013-04-23 20:15:00,45.5,14.3,29.81,NW,325,0.0,0.0,28,0.00,,SCT090,0.00,VWS V14.01,2013-04-24 03:15:00,
2013-04-23 20:20:00,44.8,13.7,29.81,NW,325,0.0,0.0,28,0.00,,SCT090,0.00,VWS V14.01,2013-04-24 03:20:00,
2013-04-23 20:25:00,43.7,13.5,29.81,NW,325,0.0,0.0,29,0.00,,SCT090,0.00,VWS V14.01,2013-04-24 03:25:00,
2013-04-23 20:31:00,42.3,12.3,29.81,NW,325,0.0,0.0,29,0.00,,SCT090,0.00,VWS V14.01,2013-04-24 03:31:00,
2013-04-23 20:36:00,41.7,12.6,29.81,NW,325,0.0,0.0,30,0.00,,SCT090,0.00,VWS V14.01,2013-04-24 03:36:00,
2013-04-23 20:41:00,41.2,12.9,29.81,NW,325,0.0,0.0,31,0.00,,SCT090,0.00,VWS V14.01,2013-04-24 03:41:00,
2013-04-23 20:46:00,40.6,13.8,29.81,NW,325,0.0,0.0,33,0.00,,SCT090,0.00,VWS V14.01,2013-04-24 03:46:00,
2013-04-23 20:51:00,40.6,17.6,29.81,NW,325,0.0,0.0,39,0.00,,SCT090,0.00,VWS V14.01,2013-04-24 03:51:00,
2013-04-23 20:56:00,40.6,17.0,29.81,NW,325,0.0,0.0,38,0.00,,SCT090,0.00,VWS V14.01,2013-04-24 03:56:00,
2013-04-23 21:01:00,40.3,17.3,29.81,NW,325,0.0,0.0,39,0.00,,SCT090,0.00,VWS V14.01,2013-04-24 04:01:00,
2013-04-23 21:06:00,39.9,17.0,29.81,NW,325,0.0,0.0,39,0.00,,FEW080,0.00,VWS V14.01,2013-04-24 04:06:00,
2013-04-23 21:11:00,40.1,17.7,29.81,NW,325,0.0,0.0,40,0.00,,FEW080,0.00,VWS V14.01,2013-04-24 04:11:00,
2013-04-23 21:16:00,40.3,17.9,29.81,NW,325,0.0,0.0,40,0.00,,FEW080,0.00,VWS V14.01,2013-04-24 04:16:00,
2013-04-23 21:21:00,39.9,17.0,29.81,NW,325,0.0,0.0,39,0.00,,FEW080,0.00,VWS V14.01,2013-04-24 04:21:00,
2013-04-23 21:26:00,39.4,17.1,29.81,NW,325,0.0,0.0,40,0.00,,FEW080,0.00,VWS V14.01,2013-04-24 04:26:00,
2013-04-23 21:31:00,38.7,16.4,29.81,NW,325,0.0,0.0,40,0.00,,FEW080,0.00,VWS V14.01,2013-04-24 04:31:00,
2013-04-23 21:36:00,38.3,16.7,29.81,NW,325,0.0,0.0,41,0.00,,FEW080,0.00,VWS V14.01,2013-04-24 04:36:00,
2013-04-23 21:41:00,37.9,16.9,29.84,NW,325,0.0,0.0,42,0.00,,FEW080,0.00,VWS V14.01,2013-04-24 04:41:00,
2013-04-23 21:46:00,37.6,17.1,29.84,NW,325,0.0,0.0,43,0.00,,FEW080,0.00,VWS V14.01,2013-04-24 04:46:00,
2013-04-23 21:51:00,37.8,18.3,29.84,NW,325,0.0,0.0,45,0.00,,FEW080,0.00,VWS V14.01,2013-04-24 04:51:00,
2013-04-23 21:56:00,37.4,19.0,29.84,NW,325,0.0,0.0,47,0.00,,FEW080,0.00,VWS V14.01,2013-04-24 04:56:00,
2013-04-23 22:01:00,37.0,18.2,29.84,NW,325,0.0,0.0,46,0.00,,FEW080,0.00,VWS V14.01,2013-04-24 05:01:00,
2013-04-23 22:06:00,36.9,17.5,29.84,NW,325,0.0,0.0,45,0.00,,FEW080,0.00,VWS V14.01,2013-04-24 05:06:00,
2013-04-23 22:11:00,36.5,16.7,29.84,NW,325,0.0,0.0,44,0.00,,FEW080,0.00,VWS V14.01,2013-04-24 05:11:00,
2013-04-23 22:16:00,36.0,16.2,29.84,NW,325,0.0,0.0,44,0.00,,FEW080,0.00,VWS V14.01,2013-04-24 05:16:00,
2013-04-23 22:21:00,35.8,16.5,29.84,NW,325,0.0,0.0,45,0.00,,FEW080,0.00,VWS V14.01,2013-04-24 05:21:00,
2013-04-23 22:26:00,35.8,17.0,29.84,NW,325,0.0,0.0,46,0.00,,FEW080,0.00,VWS V14.01,2013-04-24 05:26:00,
2013-04-23 22:31:00,35.6,17.9,29.84,NW,325,0.0,0.0,48,0.00,,FEW080,0.00,VWS V14.01,2013-04-24 05:31:00,
2013-04-23 22:36:00,35.4,17.2,29.84,NW,325,0.0,0.0,47,0.00,,FEW080,0.00,VWS V14.01,2013-04-24 05:36:00,
2013-04-23 22:41:00,35.2,17.5,29.84,NW,325,0.0,0.0,48,0.00,,FEW080,0.00,VWS V14.01,2013-04-24 05:41:00,
2013-04-23 22:46:00,35.4,18.2,29.84,NW,325,0.0,0.0,49,0.00,,FEW080,0.00,VWS V14.01,2013-04-24 05:46:00,
2013-04-23 22:51:00,35.4,18.2,29.84,NW,325,0.0,0.0,49,0.00,,FEW080,0.00,VWS V14.01,2013-04-24 05:51:00,
2013-04-23 22:56:00,35.4,18.6,29.84,NW,325,0.0,0.0,50,0.00,,FEW080,0.00,VWS V14.01,2013-04-24 05:56:00,
2013-04-23 23:01:00,35.2,17.5,29.84,NW,325,0.0,0.0,48,0.00,,FEW080,0.00,VWS V14.01,2013-04-24 06:01:00,
2013-04-23 23:06:00,35.1,17.8,29.84,NW,325,0.0,0.0,49,0.00,,FEW080,0.00,VWS V14.01,2013-04-24 06:06:00,
2013-04-23 23:11:00,35.1,18.3,29.84,NW,325,0.0,0.0,50,0.00,,FEW090,0.00,VWS V14.01,2013-04-24 06:11:00,
2013-04-23 23:16:00,35.1,18.3,29.84,NW,325,0.0,0.0,50,0.00,,FEW090,0.00,VWS V14.01,2013-04-24 06:16:00,
2013-04-23 23:21:00,35.2,18.5,29.84,NW,325,0.0,0.0,50,0.00,,FEW090,0.00,VWS V14.01,2013-04-24 06:21:00,
2013-04-23 23:26:00,35.1,18.3,29.84,NW,325,0.0,0.0,50,0.00,,FEW090,0.00,VWS V14.01,2013-04-24 06:26:00,
2013-04-23 23:31:00,35.2,18.5,29.84,NW,325,0.0,0.0,50,0.00,,FEW090,0.00,VWS V14.01,2013-04-24 06:31:00,
2013-04-23 23:36:00,35.4,18.2,29.84,NW,325,0.0,0.0,49,0.00,,FEW090,0.00,VWS V14.01,2013-04-24 06:36:00,
2013-04-23 23:41:00,34.9,17.2,29.84,NW,325,0.0,0.0,48,0.00,,FEW090,0.00,VWS V14.01,2013-04-24 06:41:00,
2013-04-23 23:46:00,34.5,16.9,29.84,NW,325,0.0,0.0,48,0.00,,FEW090,0.00,VWS V14.01,2013-04-24 06:46:00,
2013-04-23 23:51:00,34.0,16.4,29.84,NW,325,0.0,0.0,48,0.00,,FEW090,0.00,VWS V14.01,2013-04-24 06:51:00,
2013-04-23 23:56:00,33.6,17.0,29.84,NW,325,0.0,0.0,50,0.00,,FEW090,0.00,VWS V14.01,2013-04-24 06:56:00,